Paynesville, MN

10:01 PM CST on November 21, 2017 (GMT -0600)
Paynesville

Weather History for KPEX - March, 2014

Change the Weather History Date:

Sunday, March 9, 2014

  Actual Average (KLJF) Record (KLJF)
Temperature  
Mean Temperature 28 °F -  
Max Temperature 41 °F 37 °F 57 °F (2015)
Min Temperature 15 °F 17 °F -15 °F (1984)
Degree Days  
Heating Degree Days 37    
Moisture  
Dew Point 26 °F    
Average Humidity 78    
Maximum Humidity 86    
Minimum Humidity 65    
Precipitation  
Precipitation 0.00 in - - ()
Sea Level Pressure  
Sea Level Pressure 29.76 in    
Wind  
Wind Speed 7 mph (SSW)    
Max Wind Speed 14 mph    
Max Gust Speed 20 mph    
Visibility 10 miles    
Events      
Averages and records for this station are not official NWS values.
T = Trace of Precipitation, MM = Missing Value Source: NWS Daily Summary

Daily Weather History Graph

Daily Weather History Graph

Search for Another Location

Airport or City:

Trip Planner

Search our weather history database for the weather conditions in past years. The results will help you decide how hot, cold, wet, or windy it might be!

Date:

Astronomy

Mar. 09, 2014 Rise Set
Actual Time 7:42 AM CDT 7:17 PM CDT
Civil Twilight 7:13 AM CDT 7:46 PM CDT
Nautical Twilight 6:39 AM CDT 8:20 PM CDT
Astronomical Twilight 6:04 AM CDT 8:55 PM CDT
Moon 12:58 PM CDT (3/9) 3:21 AM CDT (3/9)
Length of Visible Light 12h 33m
Length of Day
11h 34m
First Quarter, 61% of the Moon is Illuminated
Mar 9
First Quarter
Mar 16
Full
Mar 23
Last Quarter
Mar 30
New
Apr 7
First Quarter

Hourly Weather History & Observations

Time (CDT) Temp. Windchill Dew Point Humidity Pressure Visibility Wind Dir Wind Speed Gust Speed Precip Events Conditions
12:12 AM 15.1 °F 3.3 °F 11.7 °F 86% 30.07 in 10.0 mi South 9.2 mph - N/A   Clear
12:31 AM 15.4 °F 3.0 °F 12.0 °F 86% 30.06 in 10.0 mi South 10.4 mph - N/A   Clear
12:52 AM 15.6 °F 3.2 °F 12.2 °F 86% 30.05 in 10.0 mi South 10.4 mph - N/A   Clear
1:12 AM 15.8 °F 4.2 °F 12.2 °F 86% 30.04 in 10.0 mi South 9.2 mph - N/A   Clear
1:32 AM 15.8 °F 4.2 °F 12.2 °F 86% 30.03 in 10.0 mi South 9.2 mph - N/A   Clear
1:51 AM 16.3 °F 4.1 °F 12.7 °F 86% 30.02 in 10.0 mi South 10.4 mph - N/A   Clear
3:12 AM 16.5 °F 6.0 °F 12.7 °F 85% 30.01 in 10.0 mi SSE 8.1 mph - N/A   Clear
3:32 AM 16.7 °F 9.6 °F 12.9 °F 85% 30.00 in 10.0 mi South 4.6 mph - N/A   Clear
3:52 AM 17.6 °F - 13.1 °F 83% 29.98 in 10.0 mi Calm Calm - N/A   Clear
4:12 AM 18.5 °F 13.3 °F 14.0 °F 83% 29.97 in 10.0 mi South 3.5 mph - N/A   Clear
4:31 AM 19.2 °F 10.2 °F 14.2 °F 81% 29.94 in 10.0 mi South 6.9 mph - N/A   Clear
4:52 AM 20.1 °F - 14.9 °F 80% 29.94 in 10.0 mi Calm Calm - N/A   Clear
5:12 AM 20.3 °F 11.5 °F 15.1 °F 80% 29.93 in 10.0 mi South 6.9 mph - N/A   Clear
5:32 AM 20.8 °F 14.4 °F 15.4 °F 80% 29.92 in 10.0 mi South 4.6 mph - N/A   Clear
5:52 AM 21.2 °F 11.7 °F 15.8 °F 80% 29.91 in 10.0 mi South 8.1 mph - N/A   Clear
6:12 AM 21.4 °F 10.4 °F 16.2 °F 80% 29.89 in 10.0 mi South 10.4 mph - N/A   Clear
6:32 AM 22.1 °F 12.8 °F 16.7 °F 80% 29.88 in 10.0 mi South 8.1 mph - N/A   Clear
6:52 AM 22.8 °F 14.5 °F 17.4 °F 80% 29.86 in 10.0 mi South 6.9 mph - N/A   Clear
7:12 AM 23.5 °F 17.6 °F 18.0 °F 79% 29.85 in 10.0 mi South 4.6 mph - N/A   Clear
7:32 AM 24.3 °F - 18.5 °F 79% 29.84 in 10.0 mi Calm Calm - N/A   Clear
7:52 AM 24.6 °F 15.1 °F 19.0 °F 79% 29.82 in 10.0 mi South 9.2 mph - N/A   Clear
8:12 AM 25.3 °F 19.7 °F 19.8 °F 79% 29.81 in 10.0 mi South 4.6 mph - N/A   Clear
8:32 AM 26.6 °F 17.5 °F 20.7 °F 78% 29.80 in 10.0 mi South 9.2 mph - N/A   Clear
8:52 AM 27.5 °F 16.3 °F 21.4 °F 78% 29.78 in 10.0 mi South 13.8 mph 17.3 mph N/A   Clear
9:12 AM 28.4 °F 19.1 °F 22.1 °F 77% 29.78 in 10.0 mi SSW 10.4 mph 18.4 mph N/A   Clear
9:32 AM 29.7 °F 20.1 °F 23.0 °F 76% 29.77 in 10.0 mi South 11.5 mph 19.6 mph N/A   Clear
9:52 AM 31.1 °F 20.9 °F 23.9 °F 75% 29.75 in 10.0 mi SSW 13.8 mph - N/A   Clear
10:11 AM 32.0 °F 23.0 °F 24.6 °F 74% 29.75 in 10.0 mi SSW 11.5 mph - N/A   Scattered Clouds
10:31 AM 33.1 °F 23.9 °F 25.9 °F 75% 29.73 in 10.0 mi SSW 12.7 mph 18.4 mph N/A   Scattered Clouds
10:52 AM 34.5 °F 26.2 °F 27.0 °F 74% 29.73 in 10.0 mi SSW 11.5 mph - N/A   Clear
11:12 AM 35.8 °F 28.3 °F 27.7 °F 72% 29.72 in 10.0 mi SSW 10.4 mph - N/A   Clear
11:32 AM 37.2 °F - 28.6 °F 71% 29.72 in 10.0 mi Calm Calm - N/A   Clear
11:52 AM 39.4 °F 35.2 °F 29.3 °F 67% 29.72 in 10.0 mi SW 5.8 mph - N/A   Clear
12:12 PM 39.6 °F 33.0 °F 30.2 °F 69% 29.70 in 10.0 mi SW 10.4 mph - N/A   Clear
12:32 PM 40.3 °F - 30.2 °F 67% 29.70 in 10.0 mi Calm Calm - N/A   Clear
12:52 PM 41.2 °F - 30.6 °F 66% 29.69 in 10.0 mi Calm Calm - N/A   Clear
1:12 PM 41.2 °F 36.0 °F 30.7 °F 66% 29.69 in 10.0 mi WSW 8.1 mph - N/A   Clear
1:32 PM 41.5 °F 35.0 °F 30.7 °F 65% 29.69 in 10.0 mi WSW 11.5 mph - N/A   Clear
1:52 PM 41.2 °F 35.0 °F 30.7 °F 66% 29.68 in 10.0 mi WSW 10.4 mph - N/A   Clear
2:12 PM 40.5 °F 34.6 °F 30.9 °F 69% 29.67 in 10.0 mi WSW 9.2 mph - N/A   Clear
2:32 PM 40.1 °F 34.1 °F 31.1 °F 70% 29.66 in 10.0 mi SW 9.2 mph - N/A   Clear
2:52 PM 40.5 °F - 31.5 °F 70% 29.66 in 10.0 mi Calm Calm - N/A   Clear
3:12 PM 40.6 °F 34.8 °F 31.8 °F 71% 29.66 in 10.0 mi WSW 9.2 mph - N/A   Clear
3:32 PM 41.0 °F 35.2 °F 32.0 °F 70% 29.65 in 10.0 mi SW 9.2 mph - N/A   Clear
3:52 PM 40.6 °F 35.4 °F 32.0 °F 71% 29.65 in 10.0 mi SW 8.1 mph - N/A   Clear
4:12 PM 40.3 °F 33.9 °F 32.2 °F 73% 29.65 in 10.0 mi SW 10.4 mph - N/A   Clear
4:31 PM 40.3 °F 33.9 °F 32.2 °F 73% 29.64 in 10.0 mi SW 10.4 mph - N/A   Clear
4:52 PM 40.1 °F 34.7 °F 32.5 °F 74% 29.65 in 10.0 mi WSW 8.1 mph - N/A   Clear
5:12 PM 39.2 °F - 32.5 °F 77% 29.66 in 10.0 mi Calm Calm - N/A   Clear
5:32 PM 39.2 °F - 32.9 °F 78% 29.66 in 10.0 mi Calm Calm - N/A   Clear
5:52 PM 37.8 °F - 32.7 °F 82% 29.67 in 10.0 mi Calm Calm - N/A   Clear
6:12 PM 38.7 °F - 33.1 °F 80% 29.67 in 10.0 mi Calm Calm - N/A   Clear
6:32 PM 39.2 °F 33.0 °F 33.3 °F 79% 29.66 in 10.0 mi WSW 9.2 mph - N/A   Clear
6:52 PM 39.4 °F 32.7 °F 33.6 °F 80% 29.66 in 10.0 mi SW 10.4 mph - N/A   Clear
7:12 PM 39.2 °F 35.0 °F 33.3 °F 79% 29.66 in 10.0 mi WSW 5.8 mph - N/A   Clear
7:32 PM 36.5 °F 31.8 °F 32.4 °F 85% 29.67 in 10.0 mi WSW 5.8 mph - N/A   Clear
7:52 PM 38.1 °F 31.2 °F 33.8 °F 84% 29.67 in 10.0 mi WSW 10.4 mph - N/A   Mostly Cloudy
8:12 PM 38.7 °F 31.8 °F 33.8 °F 83% 29.67 in 10.0 mi WSW 10.4 mph - N/A   Mostly Cloudy
8:32 PM 37.0 °F - 33.1 °F 86% 29.66 in 10.0 mi Calm Calm - N/A   Scattered Clouds
8:52 PM 37.8 °F - 32.9 °F 83% 29.66 in 10.0 mi Calm Calm - N/A   Scattered Clouds
9:12 PM 36.9 °F - 32.9 °F 86% 29.66 in 10.0 mi Calm Calm - N/A   Clear
9:32 PM 38.1 °F - 33.1 °F 82% 29.66 in 10.0 mi Calm Calm - N/A   Clear
9:52 PM 37.2 °F - 32.4 °F 83% 29.65 in 10.0 mi Calm Calm - N/A   Mostly Cloudy
10:12 PM 36.3 °F - 32.2 °F 85% 29.65 in 10.0 mi Calm Calm - N/A   Mostly Cloudy
10:32 PM 37.8 °F - 32.5 °F 81% 29.65 in 10.0 mi Calm Calm - N/A   Scattered Clouds
10:52 PM 38.1 °F - 33.3 °F 83% 29.65 in 10.0 mi Calm Calm - N/A   Mostly Cloudy
11:12 PM 38.5 °F - 33.3 °F 81% 29.64 in 10.0 mi Calm Calm - N/A   Mostly Cloudy
11:32 PM 39.6 °F 33.5 °F 33.4 °F 79% 29.64 in 10.0 mi WSW 9.2 mph - N/A   Scattered Clouds
11:52 PM 39.7 °F 34.3 °F 33.6 °F 79% 29.62 in 10.0 mi SSW 8.1 mph - N/A   Scattered Clouds
12:12 AM 39.7 °F - 33.4 °F 78% 29.64 in 10.0 mi Calm Calm - N/A   Clear
12:32 AM 37.8 °F - 32.9 °F 83% 29.64 in 10.0 mi Calm Calm - N/A   Clear
12:52 AM 36.5 °F - 32.4 °F 85% 29.63 in 10.0 mi Calm Calm - N/A   Clear